GW7458 Weather Reports


time (UTC)temp
C
wind
direction
speed
KPH
gust
KPH
rain 1hr
cm
rain 24hr
cm
rain mn
cm
humidity
%
barometer
mb
20260906143200 30 337 1.6 4.8 0.00 0.00 0.00 68 1013.3
20260906143100 30 115 4.8 9.7 0.00 0.00 0.00 68 1013.3
20260906143000 30 49 6.4 9.7 0.00 0.00 0.00 67 1013.3
20260906142900 30 50 6.4 12.9 0.00 0.00 0.00 67 1013.4
20260906142800 30 28 6.4 12.9 0.00 0.00 0.00 68 1013.4
20260906142700 30 50 4.8 11.3 0.00 0.00 0.00 67 1013.4
20260906142600 30 65 6.4 11.3 0.00 0.00 0.00 67 1013.4
20260906142500 30 30 8.0 14.5 0.00 0.00 0.00 65 1013.4
20260906142400 30 18 6.4 9.7 0.00 0.00 0.00 66 1013.4
20260906142300 30 113 0.0 11.3 0.00 0.00 0.00 66 1013.4
20260906142200 30 7 4.8 8.0 0.00 0.00 0.00 69 1013.3
20260906142101 30 48 1.6 6.4 0.00 0.00 0.00 70 1013.4
20260906142000 30 357 6.4 8.0 0.00 0.00 0.00 70 1013.4
20260906141900 30 9 6.4 11.3 0.00 0.00 0.00 70 1013.4
20260906141800 30 26 9.7 11.3 0.00 0.00 0.00 70 1013.4
20260906141700 30 29 8.0 12.9 0.00 0.00 0.00 70 1013.4
20260906141601 30 50 8.0 9.7 0.00 0.00 0.00 69 1013.3
20260906141501 30 77 3.2 8.0 0.00 0.00 0.00 69 1013.4
20260906141401 30 331 4.8 6.4 0.00 0.00 0.00 69 1013.3
20260906141300 30 247 3.2 6.4 0.00 0.00 0.00 69 1013.3
20260906141200 30 18 4.8 9.7 0.00 0.00 0.00 70 1013.3
20260906141100 30 25 8.0 9.7 0.00 0.00 0.00 70 1013.3
20260906141001 30 33 1.6 11.3 0.00 0.00 0.00 69 1013.3
20260906140901 30 49 9.7 8.0 0.00 0.00 0.00 69 1013.3
20260906140800 30 32 8.0 8.0 0.00 0.00 0.00 68 1013.2
20260906140701 30 34 6.4 6.4 0.00 0.00 0.00 68 1013.2
20260906140601 29 130 1.6 3.2 0.00 0.00 0.00 70 1013.2
20260906140501 29 28 1.6 6.4 0.00 0.00 0.00 70 1013.2
20260906140401 29 53 3.2 4.8 0.00 0.00 0.00 71 1013.3
20260906140301 29 349 1.6 8.0 0.00 0.00 0.00 71 1013.3
20260906140201 29 35 6.4 6.4 0.00 0.00 0.00 71 1013.3
20260906140101 29 45 4.8 6.4 0.00 0.00 0.00 71 1013.3
20260906135900 29 21 3.2 8.0 0.00 0.00 0.00 71 1013.2
20260906135800 29 56 4.8 8.0 0.00 0.00 0.00 71 1013.2
20260906135700 28 51 4.8 6.4 0.00 0.00 0.00 72 1013.1
20260906135600 28 23 4.8 6.4 0.00 0.00 0.00 72 1013.1
20260906135501 28 61 3.2 4.8 0.00 0.00 0.00 72 1013.1
20260906135400 28 41 3.2 3.2 0.00 0.00 0.00 73 1013.1
20260906135300 28 56 3.2 3.2 0.00 0.00 0.00 73 1013.1
20260906135200 28 88 3.2 4.8 0.00 0.00 0.00 74 1013.1
20260906135100 28 118 3.2 3.2 0.00 0.00 0.00 75 1013.1
20260906134701 28 222 3.2 4.8 0.00 0.00 0.00 76 1013.0
20260906134501 28 223 4.8 6.4 0.00 0.00 0.00 78 1012.9
20260906134401 28 189 1.6 3.2 0.00 0.00 0.00 78 1012.9
20260906134300 27 282 1.6 3.2 0.00 0.00 0.00 80 1012.9
20260906134200 27 193 0.0 4.8 0.00 0.00 0.00 79 1012.9
20260906134101 27 110 1.6 3.2 0.00 0.00 0.00 79 1012.9
20260906134000 27 235 3.2 4.8 0.00 0.00 0.00 80 1012.9
20260906133900 27 226 1.6 4.8 0.00 0.00 0.00 81 1012.9
20260906133800 27 210 1.6 3.2 0.00 0.00 0.00 81 1013.0
20260906133700 27 214 1.6 3.2 0.00 0.00 0.00 81 1013.0
20260906133301 27 224 0.0 4.8 0.00 0.00 0.00 84 1013.1
20260906133201 26 282 1.6 3.2 0.00 0.00 0.00 85 1013.1
20260906133001 26 236 4.8 4.8 0.00 0.00 0.00 84 1013.1
20260906132800 26 250 4.8 3.2 0.00 0.00 0.00 85 1013.1
20260906132700 26 320 3.2 4.8 0.00 0.00 0.00 86 1013.2
20260906132600 26 333 1.6 4.8 0.00 0.00 0.00 86 1013.2
20260906132500 26 268 4.8 4.8 0.00 0.00 0.00 86 1013.2
20260906132401 26 300 3.2 3.2 0.00 0.00 0.00 87 1013.2
20260906132201 26 287 0.0 4.8 0.00 0.00 0.00 87 1013.1
20260906132101 26 276 3.2 3.2 0.00 0.00 0.00 87 1013.1
20260906132001 26 177 0.0 3.2 0.00 0.00 0.00 87 1013.1
20260906131900 26 230 1.6 3.2 0.00 0.00 0.00 87 1013.1
20260906131401 26 233 3.2 4.8 0.00 0.00 0.00 87 1013.1
20260906131200 26 186 1.6 3.2 0.00 0.00 0.00 88 1013.2
20260906131100 25 150 3.2 3.2 0.00 0.00 0.00 89 1013.2
20260906131000 25 161 1.6 3.2 0.00 0.00 0.00 89 1013.3
20260906130700 25 147 1.6 1.6 0.00 0.00 0.00 93 1013.3
20260906130600 25 110 1.6 1.6 0.00 0.00 0.00 93 1013.3
20260906130500 25 124 0.0 3.2 0.00 0.00 0.00 94 1013.3
20260906130400 24 133 1.6 1.6 0.00 0.00 0.00 94 1013.3
20260906130300 24 270 0.0 1.6 0.00 0.00 0.00 94 1013.3
20260906130200 24 260 1.6 1.6 0.00 0.00 0.00 95 1013.3
20260906130100 24 258 0.0 0.0 0.00 0.00 0.00 95 1013.4
20260906130000 24 258 0.0 0.0 0.00 0.00 0.00 95 1013.4
20260906125800 24 283 0.0 1.6 0.00 0.00 0.00 96 1013.4
20260906125601 23 238 1.6 0.0 0.00 0.00 0.00 96 1013.4
20260906125500 23 217 0.0 1.6 0.00 0.00 0.00 96 1013.4
20260906125400 23 181 0.0 1.6 0.00 0.00 0.00 96 1013.5
20260906125301 23 181 1.6 3.2 0.00 0.00 0.00 96 1013.5
20260906125100 23 277 3.2 3.2 0.00 0.00 0.00 96 1013.5
20260906125000 23 303 3.2 3.2 0.00 0.00 0.00 97 1013.6
20260906124800 23 268 3.2 4.8 0.00 0.00 0.00 97 1013.6
20260906124700 23 280 4.8 3.2 0.00 0.00 0.00 97 1013.6
20260906124600 23 261 3.2 4.8 0.00 0.00 0.00 97 1013.6
20260906124500 23 261 6.4 4.8 0.00 0.00 0.00 97 1013.6
20260906124400 23 262 1.6 1.6 0.00 0.00 0.00 97 1013.6
20260906124300 23 302 0.0 1.6 0.00 0.00 0.00 98 1013.6
20260906124200 23 302 1.6 1.6 0.00 0.00 0.00 98 1013.6
20260906124001 23 281 1.6 1.6 0.00 0.00 0.00 98 1013.6
20260906123901 23 206 0.0 0.0 0.00 0.00 0.00 98 1013.6
20260906123801 23 206 0.0 0.0 0.00 0.00 0.00 98 1013.6
20260906123701 23 206 0.0 0.0 0.00 0.00 0.00 98 1013.6
20260906123501 23 206 0.0 0.0 0.00 0.00 0.00 98 1013.6
20260906123401 23 206 0.0 0.0 0.00 0.00 0.00 98 1013.6
20260906122901 23 242 0.0 1.6 0.00 0.00 0.00 98 1013.6
20260906122801 23 288 0.0 0.0 0.00 0.00 0.00 98 1013.6
20260906122701 23 288 0.0 1.6 0.00 0.00 0.00 98 1013.5
20260906122601 23 313 0.0 1.6 0.00 0.00 0.00 98 1013.5
20260906122500 23 311 1.6 1.6 0.00 0.00 0.00 98 1013.5
20260906122401 23 319 1.6 1.6 0.00 0.00 0.00 98 1013.5
20260906122301 23 353 1.6 3.2 0.00 0.00 0.00 98 1013.5
20260906122100 23 291 1.6 3.2 0.00 0.00 0.00 98 1013.5
20260906122000 23 272 1.6 1.6 0.00 0.00 0.00 98 1013.5
20260906121900 23 207 0.0 0.0 0.00 0.00 0.00 98 1013.5
20260906121800 23 207 0.0 1.6 0.00 0.00 0.00 97 1013.5
20260906121601 23 187 0.0 3.2 0.00 0.00 0.00 97 1013.5
20260906121500 23 212 3.2 3.2 0.00 0.00 0.00 97 1013.5
20260906121400 23 200 1.6 3.2 0.00 0.00 0.00 97 1013.5
20260906121300 23 197 1.6 1.6 0.00 0.00 0.00 97 1013.4
20260906121200 23 222 0.0 0.0 0.00 0.00 0.00 97 1013.4
20260906121101 23 222 0.0 3.2 0.00 0.00 0.00 97 1013.4
20260906121001 23 225 1.6 3.2 0.00 0.00 0.00 97 1013.4
20260906120901 23 224 3.2 3.2 0.00 0.00 0.00 97 1013.4
20260906120800 23 223 1.6 1.6 0.00 0.00 0.00 97 1013.3
20260906120701 23 235 1.6 1.6 0.00 0.00 0.00 97 1013.3
20260906120600 23 85 0.0 0.0 0.00 0.00 0.00 97 1013.3
20260906120500 23 85 0.0 0.0 0.00 0.00 0.00 97 1013.3
20260906120400 23 85 0.0 1.6 0.00 0.00 0.00 97 1013.3
20260906120301 23 47 0.0 1.6 0.00 0.00 0.00 97 1013.3
20260906120101 23 45 1.6 1.6 0.00 0.00 0.00 97 1013.3
20260906120000 23 24 1.6 3.2 0.00 0.00 0.00 97 1013.3
20260906115900 23 64 3.2 1.6 0.00 0.00 0.00 98 1013.3
20260906115800 23 49 1.6 3.2 0.00 0.00 0.00 98 1013.3
20260906115700 23 64 3.2 1.6 0.00 0.00 0.00 98 1013.3
20260906115300 23 130 0.0 1.6 0.00 0.00 0.00 98 1013.3
20260906115101 23 297 0.0 0.0 0.00 0.00 0.00 98 1013.3
20260906115000 23 297 0.0 0.0 0.00 0.00 0.00 98 1013.3
20260906114900 23 297 0.0 0.0 0.00 0.00 0.00 98 1013.3
20260906114800 23 297 0.0 0.0 0.00 0.00 0.00 98 1013.3
20260906114700 23 297 0.0 0.0 0.00 0.00 0.00 98 1013.3
20260906114601 23 297 0.0 0.0 0.00 0.00 0.00 98 1013.3
20260906114501 23 297 0.0 1.6 0.00 0.00 0.00 98 1013.3
20260906114400 23 112 0.0 0.0 0.00 0.00 0.00 98 1013.3
20260906114300 23 112 0.0 0.0 0.00 0.00 0.00 98 1013.3
20260906114200 23 112 0.0 0.0 0.00 0.00 0.00 98 1013.3
20260906114100 23 112 0.0 0.0 0.00 0.00 0.00 98 1013.3
20260906114000 23 112 0.0 1.6 0.00 0.00 0.00 98 1013.3
20260906113800 23 119 0.0 0.0 0.00 0.00 0.00 98 1013.3
20260906113700 23 119 0.0 0.0 0.00 0.00 0.00 98 1013.4
20260906113600 23 119 0.0 0.0 0.00 0.00 0.00 98 1013.4
20260906113501 23 119 0.0 0.0 0.00 0.00 0.00 98 1013.4
20260906113401 23 119 0.0 0.0 0.00 0.00 0.00 98 1013.4
20260906113301 23 119 0.0 0.0 0.00 0.00 0.00 98 1013.4
20260906113201 23 119 0.0 0.0 0.00 0.00 0.00 98 1013.4
20260906113101 23 119 0.0 0.0 0.00 0.00 0.00 98 1013.4
20260906112900 23 98 1.6 0.0 0.00 0.00 0.00 99 1013.4
20260906112800 23 88 0.0 0.0 0.00 0.00 0.00 99 1013.4
20260906112600 23 88 0.0 0.0 0.00 0.00 0.00 99 1013.4
20260906112500 23 335 0.0 0.0 0.00 0.00 0.00 99 1013.4
20260906112400 23 335 0.0 0.0 0.00 0.00 0.00 99 1013.4
20260906112300 23 335 0.0 0.0 0.00 0.00 0.00 99 1013.4
20260906112201 23 335 0.0 0.0 0.00 0.00 0.00 99 1013.3
20260906111801 23 217 0.0 0.0 0.00 0.00 0.00 99 1013.3
20260906111701 23 217 0.0 1.6 0.00 0.00 0.00 99 1013.4
20260906111601 23 217 1.6 1.6 0.00 0.00 0.00 99 1013.4
20260906111501 23 236 1.6 3.2 0.00 0.00 0.00 99 1013.4
20260906111400 23 258 1.6 1.6 0.00 0.00 0.00 99 1013.4
20260906111300 23 37 0.0 0.0 0.00 0.00 0.00 99 1013.4
20260906111100 23 37 0.0 0.0 0.00 0.00 0.00 99 1013.4
20260906111000 23 37 0.0 0.0 0.00 0.00 0.00 99 1013.4
20260906110900 23 37 0.0 0.0 0.00 0.00 0.00 99 1013.3
20260906110800 23 37 0.0 0.0 0.00 0.00 0.00 99 1013.3
20260906110700 23 37 0.0 0.0 0.00 0.00 0.00 99 1013.3
20260906110501 23 37 1.6 1.6 0.00 0.00 0.00 99 1013.4
20260906110201 23 42 0.0 0.0 0.00 0.00 0.00 99 1013.4
20260906110101 23 42 0.0 0.0 0.00 0.00 0.00 99 1013.4
20260906110000 23 42 0.0 0.0 0.00 0.00 0.00 99 1013.4
20260906105900 23 42 0.0 0.0 0.00 0.00 0.00 99 1013.4
20260906105701 23 42 0.0 0.0 0.00 0.00 0.00 99 1013.4
20260906105601 23 42 0.0 0.0 0.00 0.00 0.00 99 1013.4
20260906105501 23 42 0.0 0.0 0.00 0.00 0.00 99 1013.3
20260906105401 23 42 0.0 0.0 0.00 0.00 0.00 99 1013.3
20260906105201 23 42 0.0 0.0 0.00 0.00 0.00 99 1013.3
20260906105100 23 42 0.0 0.0 0.00 0.00 0.00 99 1013.3
20260906105001 23 42 0.0 3.2 0.00 0.00 0.00 99 1013.3
20260906104801 23 49 1.6 3.2 0.00 0.00 0.00 99 1013.2
20260906104701 23 57 1.6 1.6 0.00 0.00 0.00 99 1013.2
20260906104601 22 44 1.6 1.6 0.00 0.00 0.00 99 1013.1
20260906104500 22 44 1.6 1.6 0.00 0.00 0.00 99 1013.1
20260906104400 22 268 0.0 0.0 0.00 0.00 0.00 99 1013.1
20260906104301 22 268 0.0 0.0 0.00 0.00 0.00 99 1013.0
20260906104200 22 268 0.0 1.6 0.00 0.00 0.00 99 1013.0
20260906104100 22 224 0.0 0.0 0.00 0.00 0.00 99 1013.0
20260906103800 22 224 0.0 0.0 0.00 0.00 0.00 99 1012.9
20260906103700 22 224 0.0 1.6 0.00 0.00 0.00 99 1012.9
20260906103600 22 218 0.0 1.6 0.00 0.00 0.00 99 1012.9
20260906103500 22 241 1.6 1.6 0.00 0.00 0.00 99 1012.9
20260906103300 22 273 0.0 0.0 0.00 0.00 0.00 99 1012.9
20260906103200 22 273 0.0 0.0 0.00 0.00 0.00 99 1012.9
20260906103100 22 273 0.0 3.2 0.00 0.00 0.00 99 1012.9
20260906103000 22 270 3.2 1.6 0.00 0.00 0.00 99 1012.9
20260906102900 22 28 1.6 1.6 0.00 0.00 0.00 99 1012.9
20260906102801 22 164 0.0 0.0 0.00 0.00 0.00 99 1012.9
20260906102701 22 164 0.0 0.0 0.00 0.00 0.00 99 1012.9
20260906102601 22 164 0.0 0.0 0.00 0.00 0.00 99 1012.9
20260906102501 22 164 0.0 0.0 0.00 0.00 0.00 99 1012.9
20260906102400 22 164 0.0 0.0 0.00 0.00 0.00 99 1012.9
20260906102201 22 108 1.6 0.0 0.00 0.00 0.00 99 1012.9
20260906102100 22 21 0.0 1.6 0.00 0.00 0.00 99 1012.9
20260906102000 22 128 0.0 0.0 0.00 0.00 0.00 99 1012.9
20260906101900 22 128 0.0 0.0 0.00 0.00 0.00 99 1012.9
20260906101700 22 141 0.0 0.0 0.00 0.00 0.00 99 1012.9
20260906101600 22 184 0.0 0.0 0.00 0.00 0.00 99 1012.9
20260906101500 22 184 0.0 0.0 0.00 0.00 0.00 99 1012.9
20260906101300 22 184 0.0 0.0 0.00 0.00 0.00 99 1012.8
20260906101200 22 187 0.0 1.6 0.00 0.00 0.00 99 1012.8
20260906101001 22 1 0.0 0.0 0.00 0.00 0.00 99 1012.9
20260906100800 22 1 0.0 0.0 0.00 0.00 0.00 99 1012.9
20260906100700 22 1 0.0 0.0 0.00 0.00 0.00 99 1012.8
20260906100600 22 1 0.0 0.0 0.00 0.00 0.00 99 1012.8
20260906100500 22 1 0.0 1.6 0.00 0.00 0.00 99 1012.8
20260906100300 22 21 0.0 0.0 0.00 0.00 0.00 99 1012.7
20260906100200 22 319 0.0 0.0 0.00 0.00 0.00 99 1012.7
20260906100100 22 319 0.0 0.0 0.00 0.00 0.00 99 1012.7
20260906100001 22 319 0.0 1.6 0.00 0.00 0.00 99 1012.7
20260906095900 22 355 0.0 1.6 0.00 0.00 0.00 99 1012.7
20260906095801 22 292 1.6 1.6 0.00 0.00 0.00 99 1012.7
20260906095701 22 303 1.6 1.6 0.00 0.00 0.00 99 1012.8
20260906095501 22 259 0.0 0.0 0.00 0.00 0.00 99 1012.8
20260906095301 22 259 0.0 1.6 0.00 0.00 0.00 99 1012.7
20260906095000 22 224 0.0 0.0 0.00 0.00 0.00 99 1012.7
20260906094900 22 224 0.0 1.6 0.00 0.00 0.00 99 1012.6
20260906094800 22 211 0.0 1.6 0.00 0.00 0.00 99 1012.6
20260906094700 22 184 0.0 0.0 0.00 0.00 0.00 99 1012.6
20260906094600 22 184 0.0 1.6 0.00 0.00 0.00 99 1012.6
20260906094500 22 281 1.6 1.6 0.00 0.00 0.00 99 1012.6
20260906094400 22 323 0.0 1.6 0.00 0.00 0.00 99 1012.6
20260906094300 22 262 0.0 0.0 0.00 0.00 0.00 99 1012.6
20260906094200 22 262 0.0 0.0 0.00 0.00 0.00 99 1012.6
20260906094100 22 262 0.0 0.0 0.00 0.00 0.00 99 1012.6
20260906094000 22 262 0.0 0.0 0.00 0.00 0.00 99 1012.6
20260906093900 22 262 0.0 0.0 0.00 0.00 0.00 99 1012.6
20260906093800 22 262 0.0 1.6 0.00 0.00 0.00 99 1012.6
20260906093600 22 271 0.0 0.0 0.00 0.00 0.00 99 1012.6
20260906093400 22 271 1.6 0.0 0.00 0.00 0.00 99 1012.6
20260906093300 22 260 0.0 0.0 0.00 0.00 0.00 99 1012.6
20260906093100 22 240 0.0 1.6 0.00 0.00 0.00 99 1012.6
20260906093000 22 236 1.6 3.2 0.00 0.00 0.00 99 1012.7
20260906092901 22 245 1.6 3.2 0.00 0.00 0.00 99 1012.7
20260906092801 22 240 3.2 1.6 0.00 0.00 0.00 99 1012.7
20260906092701 22 256 1.6 1.6 0.00 0.00 0.00 99 1012.7
20260906092601 22 280 1.6 1.6 0.00 0.00 0.00 99 1012.7
20260906092500 22 270 1.6 3.2 0.00 0.00 0.00 99 1012.7
20260906092400 22 257 1.6 1.6 0.00 0.00 0.00 99 1012.7
20260906092300 22 358 0.0 0.0 0.00 0.00 0.00 99 1012.7
20260906092200 22 358 0.0 0.0 0.00 0.00 0.00 99 1012.7
20260906091900 22 358 0.0 0.0 0.00 0.00 0.00 99 1012.8
20260906091800 22 358 0.0 0.0 0.00 0.00 0.00 99 1012.8
20260906091700 22 358 0.0 0.0 0.00 0.00 0.00 99 1012.9
20260906091500 23 358 0.0 1.6 0.00 0.00 0.00 99 1012.9
20260906091400 23 246 0.0 0.0 0.00 0.00 0.00 99 1012.8
20260906091300 23 246 0.0 0.0 0.00 0.00 0.00 99 1012.8
20260906091101 23 246 0.0 0.0 0.00 0.00 0.00 99 1012.7
20260906090901 23 246 0.0 0.0 0.00 0.00 0.00 99 1012.7
20260906090800 23 246 0.0 1.6 0.00 0.00 0.00 99 1012.7
20260906090700 23 242 0.0 0.0 0.00 0.00 0.00 99 1012.7
20260906090600 23 242 0.0 0.0 0.00 0.00 0.00 99 1012.8
20260906090501 23 242 0.0 1.6 0.00 0.00 0.00 99 1012.8
20260906090400 23 249 0.0 0.0 0.00 0.00 0.00 99 1012.8
20260906090300 23 249 0.0 1.6 0.00 0.00 0.00 99 1012.8
20260906090200 23 271 0.0 0.0 0.00 0.00 0.00 99 1012.9
20260906090100 23 271 0.0 1.6 0.00 0.00 0.00 99 1012.9
20260906090000 23 354 0.0 1.6 0.00 0.00 0.00 99 1012.9
20260906085900 23 350 1.6 1.6 0.00 0.00 0.00 99 1012.9
20260906085801 23 325 1.6 3.2 0.00 0.00 0.00 99 1012.9
20260906085700 23 292 1.6 1.6 0.00 0.00 0.00 99 1012.8
20260906085600 23 246 0.0 0.0 0.00 0.00 0.00 99 1012.8
20260906085500 23 246 0.0 1.6 0.00 0.00 0.00 99 1012.8
20260906085400 23 253 1.6 0.0 0.00 0.00 0.00 99 1012.8
20260906085300 23 214 0.0 0.0 0.00 0.00 0.00 99 1012.8
20260906085200 23 55 0.0 0.0 0.00 0.00 0.00 99 1012.8
20260906085100 23 55 0.0 0.0 0.00 0.00 0.00 99 1012.8
20260906085001 23 55 0.0 1.6 0.00 0.00 0.00 99 1012.8
20260906084900 23 31 0.0 0.0 0.00 0.00 0.00 99 1012.8
20260906084800 23 31 0.0 1.6 0.00 0.00 0.00 99 1012.8
20260906084700 23 31 1.6 1.6 0.00 0.00 0.00 99 1012.7
20260906084600 23 342 1.6 3.2 0.00 0.00 0.00 99 1012.7
20260906084500 23 335 1.6 1.6 0.00 0.00 0.00 99 1012.7
20260906084400 23 318 0.0 0.0 0.00 0.00 0.00 99 1012.7
20260906084301 23 318 0.0 0.0 0.00 0.00 0.00 99 1012.7
20260906084200 23 318 0.0 0.0 0.00 0.00 0.00 99 1012.7
20260906084101 23 318 0.0 1.6 0.00 0.00 0.00 99 1012.7
20260906084001 23 309 0.0 1.6 0.00 0.00 0.00 99 1012.6
20260906083900 23 5 0.0 3.2 0.00 0.00 0.00 99 1012.6
20260906083800 23 349 3.2 3.2 0.00 0.00 0.00 99 1012.6
20260906083700 23 2 3.2 3.2 0.00 0.00 0.00 99 1012.6
20260906083600 23 1 1.6 3.2 0.00 0.00 0.00 99 1012.6
20260906083501 23 11 3.2 3.2 0.00 0.00 0.00 99 1012.7
20260906083401 23 1 3.2 3.2 0.00 0.00 0.00 99 1012.7
20260906083301 23 20 1.6 3.2 0.00 0.00 0.00 99 1012.7
20260906083200 23 352 3.2 1.6 0.00 0.00 0.00 99 1012.7
20260906083101 23 19 0.0 1.6 0.00 0.00 0.00 99 1012.7
20260906083001 23 79 0.0 0.0 0.00 0.00 0.00 99 1012.7
20260906082901 23 79 0.0 1.6 0.00 0.00 0.00 99 1012.7
20260906082801 23 96 0.0 1.6 0.00 0.00 0.00 99 1012.7
20260906082701 23 96 1.6 1.6 0.00 0.00 0.00 99 1012.7
20260906082601 23 168 0.0 1.6 0.00 0.00 0.00 99 1012.7
20260906082501 23 190 1.6 1.6 0.00 0.00 0.00 99 1012.6
20260906082400 23 359 0.0 0.0 0.00 0.00 0.00 99 1012.6
20260906082200 23 359 0.0 0.0 0.00 0.00 0.00 99 1012.5
20260906082100 23 359 0.0 0.0 0.00 0.00 0.00 99 1012.5
20260906082000 23 359 0.0 1.6 0.00 0.00 0.00 99 1012.4
20260906081801 23 200 0.0 0.0 0.00 0.00 0.00 99 1012.4
20260906081701 23 200 0.0 0.0 0.00 0.00 0.00 99 1012.4
20260906081601 23 200 0.0 0.0 0.00 0.00 0.00 99 1012.4
20260906081501 23 200 0.0 0.0 0.00 0.00 0.00 99 1012.4
20260906081400 23 200 0.0 0.0 0.00 0.00 0.00 99 1012.4
20260906081300 23 200 0.0 0.0 0.00 0.00 0.00 99 1012.4
20260906081201 23 200 0.0 0.0 0.00 0.00 0.00 99 1012.4
20260906081100 23 200 0.0 0.0 0.00 0.00 0.00 99 1012.4
20260906081000 23 200 0.0 0.0 0.00 0.00 0.00 99 1012.4
20260906080900 23 200 0.0 0.0 0.00 0.00 0.00 99 1012.4
20260906080800 23 200 0.0 0.0 0.00 0.00 0.00 99 1012.4
20260906080700 23 200 0.0 0.0 0.00 0.00 0.00 99 1012.5
20260906080601 23 200 0.0 0.0 0.00 0.00 0.00 99 1012.5
20260906080500 23 200 0.0 1.6 0.00 0.00 0.00 99 1012.5
20260906080400 23 205 0.0 0.0 0.00 0.00 0.00 99 1012.6
20260906080300 23 205 0.0 0.0 0.00 0.00 0.00 99 1012.6
20260906080200 23 205 0.0 0.0 0.00 0.00 0.00 99 1012.6
20260906080100 23 205 0.0 0.0 0.00 0.00 0.00 99 1012.6
20260906080001 23 205 0.0 0.0 0.00 0.00 0.00 99 1012.6
20260906075901 23 205 0.0 0.0 0.00 0.00 0.00 99 1012.6
20260906075801 23 41 0.0 0.0 0.00 0.00 0.00 99 1012.7
20260906075701 23 41 0.0 0.0 0.00 0.00 0.00 99 1012.7
20260906075601 23 41 0.0 1.6 0.00 0.00 0.00 99 1012.8
20260906075500 23 51 0.0 0.0 0.00 0.00 0.00 99 1012.8
20260906075400 23 51 0.0 0.0 0.00 0.00 0.00 99 1012.8
20260906075101 23 19 3.2 1.6 0.00 0.00 0.00 99 1012.9
20260906074900 23 34 0.0 3.2 0.00 0.00 0.00 99 1012.9
20260906074800 23 344 0.0 1.6 0.00 0.00 0.00 99 1012.9
20260906074501 23 61 1.6 3.2 0.00 0.00 0.00 99 1012.8
20260906074301 23 13 0.0 3.2 0.00 0.00 0.00 99 1012.9
20260906074201 23 40 1.6 4.8 0.00 0.00 0.00 99 1012.9
20260906074101 23 24 1.6 1.6 0.00 0.00 0.00 99 1012.8
20260906074000 23 17 0.0 1.6 0.00 0.00 0.00 99 1012.8
20260906073901 23 15 1.6 1.6 0.00 0.00 0.00 99 1012.8
20260906073800 23 24 1.6 1.6 0.00 0.00 0.00 99 1012.8
20260906073600 23 59 1.6 3.2 0.00 0.00 0.00 99 1012.7
20260906073300 23 7 0.0 0.0 0.00 0.00 0.00 99 1012.7
20260906073100 23 5 0.0 1.6 0.00 0.00 0.00 99 1012.7
20260906072700 23 307 0.0 1.6 0.00 0.00 0.00 98 1012.5
20260906072600 23 292 1.6 3.2 0.00 0.00 0.00 98 1012.4
20260906072500 23 286 0.0 3.2 0.00 0.00 0.00 98 1012.4
20260906072400 23 278 3.2 3.2 0.00 0.00 0.00 98 1012.4
20260906072301 23 264 3.2 3.2 0.00 0.00 0.00 98 1012.4
20260906072200 23 249 3.2 3.2 0.00 0.00 0.00 98 1012.3
20260906072000 23 284 1.6 1.6 0.00 0.00 0.00 98 1012.3
20260906071600 23 110 0.0 1.6 0.00 0.00 0.00 98 1012.4
20260906071400 23 326 0.0 0.0 0.00 0.00 0.00 98 1012.4
20260906071300 23 326 0.0 0.0 0.00 0.00 0.00 98 1012.4
20260906070701 23 99 0.0 0.0 0.00 0.00 0.00 98 1012.3
20260906070600 23 99 0.0 0.0 0.00 0.00 0.00 98 1012.3
20260906070501 23 99 0.0 0.0 0.00 0.00 0.00 98 1012.3
20260906070400 23 99 0.0 0.0 0.00 0.00 0.00 98 1012.3
20260906070301 23 99 0.0 3.2 0.00 0.00 0.00 98 1012.2
20260906070200 23 101 1.6 3.2 0.00 0.00 0.00 98 1012.2
20260906070101 23 103 1.6 3.2 0.00 0.00 0.00 98 1012.2
20260906065900 23 57 0.0 1.6 0.00 0.00 0.00 98 1012.1
20260906065700 23 274 0.0 3.2 0.00 0.00 0.00 98 1012.1
20260906065600 23 265 3.2 1.6 0.00 0.00 0.00 98 1012.1
20260906065500 23 296 0.0 1.6 0.00 0.00 0.00 98 1012.1
20260906065400 23 293 0.0 1.6 0.00 0.00 0.00 98 1012.1
20260906065300 23 358 0.0 1.6 0.00 0.00 0.00 98 1012.2
20260906065000 23 52 1.6 3.2 0.00 0.00 0.00 98 1012.3
20260906064900 23 38 1.6 3.2 0.00 0.00 0.00 98 1012.4
20260906064800 23 33 1.6 0.0 0.00 0.00 0.00 98 1012.4
20260906064700 23 127 0.0 0.0 0.00 0.00 0.00 98 1012.4
20260906064601 23 127 0.0 0.0 0.00 0.00 0.00 98 1012.4
20260906064500 23 127 0.0 3.2 0.00 0.00 0.00 98 1012.4
20260906064300 23 101 3.2 1.6 0.00 0.00 0.00 98 1012.4
20260906064201 23 84 1.6 0.0 0.00 0.00 0.00 98 1012.4
20260906064101 23 45 0.0 0.0 0.00 0.00 0.00 98 1012.4
20260906063901 23 333 0.0 1.6 0.00 0.00 0.00 98 1012.4
20260906063800 23 321 0.0 1.6 0.00 0.00 0.00 98 1012.4
20260906063401 23 237 0.0 1.6 0.00 0.00 0.00 98 1012.4
20260906063200 23 127 0.0 1.6 0.00 0.00 0.00 98 1012.4
20260906063100 23 125 1.6 1.6 0.00 0.00 0.00 98 1012.4
20260906063000 23 87 0.0 1.6 0.00 0.00 0.00 98 1012.4
20260906062900 23 96 0.0 3.2 0.00 0.00 0.00 98 1012.5
20260906062800 23 110 1.6 1.6 0.00 0.00 0.00 98 1012.5
20260906062701 23 252 0.0 0.0 0.00 0.00 0.00 98 1012.5
20260906062601 23 252 0.0 0.0 0.00 0.00 0.00 98 1012.5
20260906062500 23 252 0.0 1.6 0.00 0.00 0.00 98 1012.5
20260906062400 23 252 1.6 3.2 0.00 0.00 0.00 98 1012.5
20260906062300 23 260 3.2 3.2 0.00 0.00 0.00 98 1012.5
20260906062201 23 264 3.2 1.6 0.00 0.00 0.00 98 1012.5
20260906062101 23 231 3.2 1.6 0.00 0.00 0.00 98 1012.5
20260906062001 23 243 1.6 1.6 0.00 0.00 0.00 98 1012.6
20260906061900 23 142 0.0 1.6 0.00 0.00 0.00 98 1012.6
20260906061801 23 106 0.0 1.6 0.00 0.00 0.00 98 1012.6
20260906061701 23 122 1.6 1.6 0.00 0.00 0.00 98 1012.7
20260906061600 23 298 0.0 0.0 0.00 0.00 0.00 98 1012.7
20260906061500 23 298 0.0 1.6 0.00 0.00 0.00 98 1012.7
20260906061400 23 151 1.6 0.0 0.00 0.00 0.00 98 1012.7
20260906061300 23 285 0.0 0.0 0.00 0.00 0.00 98 1012.7
20260906061200 23 285 0.0 1.6 0.00 0.00 0.00 98 1012.7
20260906061101 23 313 0.0 1.6 0.00 0.00 0.00 98 1012.7
20260906061000 23 313 1.6 1.6 0.00 0.00 0.00 98 1012.7
20260906060900 23 315 0.0 1.6 0.00 0.00 0.00 98 1012.7
20260906060800 23 213 0.0 0.0 0.00 0.00 0.00 98 1012.8
20260906060700 23 213 0.0 0.0 0.00 0.00 0.00 98 1012.8
20260906060601 23 213 0.0 0.0 0.00 0.00 0.00 98 1012.8
20260906060500 23 213 0.0 0.0 0.00 0.00 0.00 98 1012.8
20260906060400 23 213 0.0 0.0 0.00 0.00 0.00 98 1012.8
20260906060300 23 213 0.0 0.0 0.00 0.00 0.00 98 1012.8
20260906060200 23 213 0.0 0.0 0.00 0.00 0.00 98 1012.8
20260906060100 23 213 0.0 0.0 0.00 0.00 0.00 98 1012.8
20260906060001 23 213 0.0 1.6 0.00 0.00 0.00 98 1012.8
20260906055900 23 268 1.6 1.6 0.00 0.00 0.00 98 1012.9
20260906055700 23 307 0.0 0.0 0.00 0.00 0.00 98 1012.9
20260906055600 23 307 0.0 1.6 0.00 0.00 0.00 98 1013.0
20260906055500 23 305 0.0 1.6 0.00 0.00 0.00 98 1013.0
20260906055400 23 252 0.0 0.0 0.00 0.00 0.00 98 1013.0
20260906055300 23 252 0.0 0.0 0.00 0.00 0.00 98 1013.0
20260906055200 23 252 0.0 0.0 0.00 0.00 0.00 98 1013.0
20260906055100 23 279 0.0 1.6 0.00 0.00 0.00 98 1013.1
20260906055000 23 279 1.6 0.0 0.00 0.00 0.00 98 1013.1
20260906054900 23 4 0.0 0.0 0.00 0.00 0.00 98 1013.1
20260906054800 23 4 0.0 0.0 0.00 0.00 0.00 98 1013.1
20260906054701 23 4 0.0 0.0 0.00 0.00 0.00 98 1013.1
20260906054601 23 4 0.0 0.0 0.00 0.00 0.00 98 1013.1
20260906054500 23 4 0.0 0.0 0.00 0.00 0.00 98 1013.1
20260906054400 23 4 0.0 0.0 0.00 0.00 0.00 98 1013.2
20260906054300 23 4 0.0 3.2 0.00 0.00 0.00 98 1013.2
20260906054200 23 9 3.2 4.8 0.00 0.00 0.00 98 1013.2
20260906054100 23 23 4.8 4.8 0.00 0.00 0.00 98 1013.2
20260906053900 23 19 4.8 4.8 0.00 0.00 0.00 98 1013.2
20260906053800 23 26 3.2 3.2 0.00 0.00 0.00 98 1013.1
20260906053700 23 30 3.2 1.6 0.00 0.00 0.00 98 1013.1
20260906053600 23 12 1.6 1.6 0.00 0.00 0.00 98 1013.1
20260906053500 23 343 0.0 0.0 0.00 0.00 0.00 98 1013.1
20260906053400 23 343 0.0 1.6 0.00 0.00 0.00 98 1013.1
20260906053001 23 136 0.0 0.0 0.00 0.00 0.00 98 1013.2
20260906052901 23 136 0.0 0.0 0.00 0.00 0.00 98 1013.2
20260906052601 23 125 1.6 1.6 0.00 0.00 0.00 98 1013.2
20260906052501 23 81 1.6 1.6 0.00 0.00 0.00 98 1013.2
20260906052400 23 49 1.6 3.2 0.00 0.00 0.00 98 1013.2
20260906052300 23 56 1.6 3.2 0.00 0.00 0.00 98 1013.2
20260906052200 23 62 1.6 3.2 0.00 0.00 0.00 98 1013.3
20260906052000 23 46 3.2 3.2 0.00 0.00 0.00 98 1013.3
20260906051900 23 51 3.2 3.2 0.00 0.00 0.00 98 1013.3
20260906051800 23 41 3.2 1.6 0.00 0.00 0.00 98 1013.3
20260906051700 23 38 1.6 1.6 0.00 0.00 0.00 98 1013.3
20260906051600 23 51 1.6 0.0 0.00 0.00 0.00 98 1013.3
20260906051500 23 160 0.0 0.0 0.00 0.00 0.00 98 1013.3
20260906051400 23 160 0.0 0.0 0.00 0.00 0.00 98 1013.3
20260906051300 23 160 0.0 0.0 0.00 0.00 0.00 98 1013.2
20260906051200 23 160 0.0 0.0 0.00 0.00 0.00 98 1013.2
20260906051100 23 160 0.0 1.6 0.00 0.00 0.00 98 1013.2
20260906050801 23 236 0.0 3.2 0.00 0.00 0.00 98 1013.2
20260906050601 23 251 3.2 3.2 0.00 0.00 0.00 98 1013.1
20260906050501 23 255 3.2 3.2 0.00 0.00 0.00 98 1013.1
20260906050101 23 161 0.0 0.0 0.00 0.00 0.00 97 1013.2
20260906050001 23 161 0.0 1.6 0.00 0.00 0.00 97 1013.2
20260906045901 23 12 0.0 0.0 0.00 0.00 0.00 97 1013.2
20260906045801 23 12 0.0 0.0 0.00 0.00 0.00 97 1013.2
20260906045701 23 12 0.0 1.6 0.00 0.00 0.00 97 1013.2
20260906045501 23 347 0.0 0.0 0.00 0.00 0.00 97 1013.2
20260906045401 23 25 0.0 0.0 0.00 0.00 0.00 97 1013.2
20260906045300 23 25 0.0 3.2 0.00 0.00 0.00 97 1013.2
20260906045200 23 52 3.2 3.2 0.00 0.00 0.00 97 1013.2
20260906045100 23 48 1.6 3.2 0.00 0.00 0.00 97 1013.3
20260906045000 23 49 1.6 3.2 0.00 0.00 0.00 97 1013.3
20260906044900 23 40 3.2 3.2 0.00 0.00 0.00 97 1013.3
20260906044800 23 31 1.6 1.6 0.00 0.00 0.00 97 1013.2
20260906044600 23 10 1.6 1.6 0.00 0.00 0.00 97 1013.1
20260906044500 23 334 0.0 0.0 0.00 0.00 0.00 97 1013.1
20260906044301 23 334 0.0 0.0 0.00 0.00 0.00 97 1013.1
20260906044200 23 334 0.0 0.0 0.00 0.00 0.00 97 1013.1
20260906044101 23 334 0.0 0.0 0.00 0.00 0.00 97 1013.1
20260906044000 23 334 0.0 0.0 0.00 0.00 0.00 97 1013.1
20260906043800 23 334 0.0 0.0 0.00 0.00 0.00 97 1013.2
20260906043600 23 334 0.0 0.0 0.00 0.00 0.00 97 1013.2
20260906043500 23 357 0.0 0.0 0.00 0.00 0.00 97 1013.2
20260906043400 23 357 0.0 0.0 0.00 0.00 0.00 97 1013.2
20260906043301 23 357 0.0 0.0 0.00 0.00 0.00 97 1013.2
20260906043200 23 357 0.0 0.0 0.00 0.00 0.00 97 1013.2
20260906043100 23 357 0.0 1.6 0.00 0.00 0.00 97 1013.2
20260906043001 23 336 0.0 0.0 0.00 0.00 0.00 97 1013.2
20260906042901 23 336 0.0 1.6 0.00 0.00 0.00 97 1013.1
20260906042800 23 336 1.6 1.6 0.00 0.00 0.00 97 1013.1
20260906042700 23 346 0.0 0.0 0.00 0.00 0.00 97 1013.1
20260906042601 23 346 0.0 0.0 0.00 0.00 0.00 97 1013.1
20260906042501 23 346 0.0 0.0 0.00 0.00 0.00 97 1013.1
20260906042300 23 346 0.0 0.0 0.00 0.00 0.00 97 1013.2
20260906042200 23 346 0.0 0.0 0.00 0.00 0.00 97 1013.2
20260906042000 23 346 0.0 0.0 0.00 0.00 0.00 97 1013.2
20260906041700 23 9 0.0 0.0 0.00 0.00 0.00 96 1013.3
20260906041600 23 9 0.0 0.0 0.00 0.00 0.00 96 1013.3
20260906041500 23 9 0.0 3.2 0.00 0.00 0.00 96 1013.3
20260906041401 23 6 3.2 3.2 0.00 0.00 0.00 96 1013.3
20260906041200 23 43 3.2 3.2 0.00 0.00 0.00 96 1013.3
20260906041100 23 76 3.2 3.2 0.00 0.00 0.00 96 1013.3
20260906040900 23 60 3.2 3.2 0.00 0.00 0.00 96 1013.4
20260906040701 23 65 3.2 1.6 0.00 0.00 0.00 96 1013.4
20260906040600 23 49 1.6 1.6 0.00 0.00 0.00 96 1013.4
20260906040500 23 16 1.6 1.6 0.00 0.00 0.00 96 1013.4
20260906040400 23 16 0.0 1.6 0.00 0.00 0.00 96 1013.4
20260906040300 23 24 1.6 1.6 0.00 0.00 0.00 96 1013.5
20260906040200 23 106 0.0 0.0 0.00 0.00 0.00 96 1013.5
20260906040001 23 106 0.0 0.0 0.00 0.00 0.00 96 1013.5
20260906035901 23 106 0.0 0.0 0.00 0.00 0.00 96 1013.5
20260906035801 23 106 0.0 0.0 0.00 0.00 0.00 96 1013.5
20260906035701 23 106 0.0 1.6 0.00 0.00 0.00 96 1013.5
20260906035601 23 320 0.0 0.0 0.00 0.00 0.00 96 1013.5
20260906035400 23 320 0.0 0.0 0.00 0.00 0.00 96 1013.5
20260906035200 24 291 0.0 1.6 0.00 0.00 0.00 96 1013.5
20260906035101 24 317 1.6 1.6 0.00 0.00 0.00 96 1013.5
20260906034900 24 292 0.0 1.6 0.00 0.00 0.00 96 1013.5
20260906034800 24 274 1.6 1.6 0.00 0.00 0.00 96 1013.5
20260906034700 24 254 1.6 1.6 0.00 0.00 0.00 96 1013.5
20260906034500 24 161 0.0 1.6 0.00 0.00 0.00 96 1013.6
20260906034400 24 159 0.0 0.0 0.00 0.00 0.00 96 1013.6
20260906034300 24 182 0.0 1.6 0.00 0.00 0.00 96 1013.6
20260906034200 24 199 0.0 0.0 0.00 0.00 0.00 96 1013.6
20260906034100 24 199 0.0 1.6 0.00 0.00 0.00 96 1013.5
20260906034000 24 220 0.0 3.2 0.00 0.00 0.00 96 1013.5
20260906033701 24 293 1.6 1.6 0.00 0.00 0.00 96 1013.5
20260906033600 24 97 0.0 1.6 0.00 0.00 0.00 96 1013.5
20260906033500 24 97 1.6 3.2 0.00 0.00 0.00 96 1013.5
20260906033401 24 75 3.2 3.2 0.00 0.00 0.00 96 1013.5
20260906033300 24 75 3.2 4.8 0.00 0.00 0.00 96 1013.5
20260906033200 24 75 4.8 6.4 0.00 0.00 0.00 96 1013.5
20260906033100 24 79 6.4 6.4 0.00 0.00 0.00 96 1013.5
20260906033000 24 76 4.8 4.8 0.00 0.00 0.00 96 1013.4
20260906032700 24 42 0.0 1.6 0.00 0.00 0.00 96 1013.3
20260906032600 24 28 0.0 1.6 0.00 0.00 0.00 96 1013.3
20260906032500 24 337 0.0 1.6 0.00 0.00 0.00 96 1013.3
20260906032101 24 280 0.0 0.0 0.00 0.00 0.00 95 1013.4
20260906032001 24 280 0.0 0.0 0.00 0.00 0.00 95 1013.4
20260906031900 24 280 0.0 0.0 0.00 0.00 0.00 95 1013.3
20260906031700 24 280 0.0 1.6 0.00 0.00 0.00 95 1013.3
20260906031600 24 347 1.6 3.2 0.00 0.00 0.00 95 1013.3
20260906031400 24 236 1.6 1.6 0.00 0.00 0.00 95 1013.3
20260906031300 24 263 0.0 1.6 0.00 0.00 0.00 95 1013.4
20260906031200 24 351 0.0 0.0 0.00 0.00 0.00 95 1013.4
20260906031100 24 351 0.0 0.0 0.00 0.00 0.00 95 1013.5
20260906031000 24 51 0.0 0.0 0.00 0.00 0.00 95 1013.5
20260906030801 24 92 0.0 1.6 0.00 0.00 0.00 95 1013.5
20260906030601 24 41 0.0 1.6 0.00 0.00 0.00 95 1013.5
20260906030501 24 41 1.6 1.6 0.00 0.00 0.00 95 1013.4
20260906030401 24 40 0.0 1.6 0.00 0.00 0.00 95 1013.4
20260906030201 24 33 3.2 3.2 0.00 0.00 0.00 95 1013.4
20260906030000 24 335 1.6 3.2 0.00 0.00 0.00 95 1013.3
20260906025901 24 294 0.0 1.6 0.00 0.00 0.00 95 1013.3
20260906025800 24 262 0.0 1.6 0.00 0.00 0.00 95 1013.3
20260906025701 24 250 1.6 1.6 0.00 0.00 0.00 95 1013.3
20260906025400 24 309 0.0 1.6 0.00 0.00 0.00 94 1013.3
20260906025301 24 10 0.0 1.6 0.00 0.00 0.00 94 1013.4
20260906025000 24 276 0.0 1.6 0.00 0.00 0.00 94 1013.4
20260906024900 24 267 0.0 1.6 0.00 0.00 0.00 94 1013.4
20260906024800 24 226 0.0 1.6 0.00 0.00 0.00 94 1013.4
20260906024600 24 282 0.0 0.0 0.00 0.00 0.00 94 1013.4
20260906024501 24 282 0.0 0.0 0.00 0.00 0.00 94 1013.3
20260906024400 24 282 0.0 0.0 0.00 0.00 0.00 94 1013.3
20260906024200 24 282 0.0 1.6 0.00 0.00 0.00 94 1013.3
20260906024100 24 19 0.0 1.6 0.00 0.00 0.00 94 1013.3
20260906024000 24 10 0.0 1.6 0.00 0.00 0.00 94 1013.3
20260906023900 24 359 0.0 1.6 0.00 0.00 0.00 94 1013.3
20260906023800 24 317 0.0 0.0 0.00 0.00 0.00 94 1013.3
20260906023601 24 303 1.6 0.0 0.00 0.00 0.00 93 1013.3
20260906023501 24 332 0.0 0.0 0.00 0.00 0.00 93 1013.3
20260906023400 25 332 0.0 1.6 0.00 0.00 0.00 93 1013.3
20260906023301 25 281 1.6 3.2 0.00 0.00 0.00 93 1013.3
20260906023200 25 317 1.6 3.2 0.00 0.00 0.00 93 1013.3
20260906023001 25 339 3.2 3.2 0.00 0.00 0.00 93 1013.3
20260906022800 25 36 1.6 1.6 0.00 0.00 0.00 93 1013.3
20260906022700 25 322 0.0 0.0 0.00 0.00 0.00 93 1013.3
20260906022600 25 322 0.0 0.0 0.00 0.00 0.00 93 1013.3
20260906022301 25 322 0.0 0.0 0.00 0.00 0.00 93 1013.2
20260906022201 25 322 0.0 1.6 0.00 0.00 0.00 93 1013.1
20260906022101 25 324 1.6 1.6 0.00 0.00 0.00 92 1013.1
20260906022000 25 256 0.0 0.0 0.00 0.00 0.00 92 1013.1
20260906021900 25 216 0.0 0.0 0.00 0.00 0.00 92 1013.1
20260906021701 25 216 0.0 0.0 0.00 0.00 0.00 92 1013.1
20260906021601 25 275 0.0 0.0 0.00 0.00 0.00 92 1013.1
20260906021500 25 275 0.0 0.0 0.00 0.00 0.00 92 1013.1
20260906021400 25 275 0.0 0.0 0.00 0.00 0.00 92 1013.0
20260906021200 25 275 0.0 1.6 0.00 0.00 0.00 92 1013.0
20260906021100 25 329 0.0 1.6 0.00 0.00 0.00 92 1013.0
20260906021001 25 310 1.6 3.2 0.00 0.00 0.00 92 1012.9
20260906020800 25 322 1.6 0.0 0.00 0.00 0.00 91 1013.0
20260906020600 25 25 0.0 0.0 0.00 0.00 0.00 91 1013.0
20260906020400 25 30 0.0 1.6 0.00 0.00 0.00 91 1013.0
20260906020101 25 47 0.0 1.6 0.00 0.00 0.00 91 1012.9
20260906015901 25 227 0.0 0.0 0.00 0.00 0.00 91 1012.9
20260906015801 25 227 0.0 1.6 0.00 0.00 0.00 91 1012.9
20260906015700 25 236 0.0 1.6 0.00 0.00 0.00 91 1012.9
20260906015600 25 326 0.0 0.0 0.00 0.00 0.00 91 1012.9
20260906015500 25 326 0.0 0.0 0.00 0.00 0.00 90 1012.9
20260906015400 25 326 0.0 1.6 0.00 0.00 0.00 90 1012.9
20260906015301 25 322 1.6 1.6 0.00 0.00 0.00 90 1012.9
20260906015201 25 313 1.6 3.2 0.00 0.00 0.00 90 1012.9
20260906015101 25 307 0.0 1.6 0.00 0.00 0.00 90 1012.8
20260906015000 25 178 0.0 0.0 0.00 0.00 0.00 90 1012.8
20260906014900 25 178 0.0 0.0 0.00 0.00 0.00 90 1012.8
20260906014700 25 180 1.6 1.6 0.00 0.00 0.00 90 1012.8
20260906014600 25 11 0.0 1.6 0.00 0.00 0.00 90 1012.8
20260906014501 25 20 0.0 1.6 0.00 0.00 0.00 90 1012.8
20260906014400 25 22 1.6 3.2 0.00 0.00 0.00 90 1012.8
20260906014300 25 5 1.6 3.2 0.00 0.00 0.00 89 1012.8
20260906014201 25 0 3.2 3.2 0.00 0.00 0.00 89 1012.8
20260906014101 26 7 3.2 3.2 0.00 0.00 0.00 89 1012.7
20260906013900 26 320 0.0 1.6 0.00 0.00 0.00 89 1012.6
20260906013601 26 279 0.0 1.6 0.00 0.00 0.00 88 1012.6
20260906013501 26 273 0.0 0.0 0.00 0.00 0.00 88 1012.5
20260906013401 26 230 0.0 1.6 0.00 0.00 0.00 88 1012.5
20260906013300 26 236 1.6 1.6 0.00 0.00 0.00 88 1012.5
20260906013200 26 262 0.0 0.0 0.00 0.00 0.00 88 1012.5
20260906013100 26 262 0.0 1.6 0.00 0.00 0.00 88 1012.5
20260906013000 26 269 1.6 0.0 0.00 0.00 0.00 88 1012.5
20260906012800 26 253 0.0 0.0 0.00 0.00 0.00 88 1012.5
20260906012700 26 253 0.0 1.6 0.00 0.00 0.00 88 1012.5
20260906012600 26 206 0.0 0.0 0.00 0.00 0.00 88 1012.5
20260906012500 26 206 0.0 0.0 0.00 0.00 0.00 87 1012.5
20260906012400 26 206 0.0 1.6 0.00 0.00 0.00 87 1012.5
20260906012301 26 258 0.0 0.0 0.00 0.00 0.00 87 1012.5
20260906012200 26 216 0.0 1.6 0.00 0.00 0.00 87 1012.5
20260906012100 26 235 1.6 1.6 0.00 0.00 0.00 87 1012.6
20260906011800 26 14 0.0 0.0 0.00 0.00 0.00 87 1012.5
20260906011700 26 14 0.0 1.6 0.00 0.00 0.00 87 1012.5
20260906011600 26 347 1.6 1.6 0.00 0.00 0.00 86 1012.4
20260906011500 26 355 1.6 1.6 0.00 0.00 0.00 86 1012.4
20260906011401 26 0 1.6 3.2 0.00 0.00 0.00 86 1012.3
20260906011300 26 2 3.2 3.2 0.00 0.00 0.00 86 1012.3
20260906011001 26 11 3.2 3.2 0.00 0.00 0.00 86 1012.2
20260906010900 26 7 1.6 3.2 0.00 0.00 0.00 85 1012.2
20260906010800 26 333 1.6 1.6 0.00 0.00 0.00 85 1012.2
20260906010700 26 209 0.0 0.0 0.00 0.00 0.00 85 1012.1
20260906010500 26 209 0.0 1.6 0.00 0.00 0.00 85 1012.1
20260906010300 26 201 0.0 1.6 0.00 0.00 0.00 85 1012.0
20260906010200 26 235 0.0 1.6 0.00 0.00 0.00 85 1012.0
20260906010101 26 246 1.6 3.2 0.00 0.00 0.00 85 1012.0
20260906005901 26 261 3.2 3.2 0.00 0.00 0.00 85 1012.0
20260906005401 26 322 1.6 1.6 0.00 0.00 0.00 84 1012.1
20260906005301 26 324 0.0 1.6 0.00 0.00 0.00 84 1012.1
20260906005200 26 287 0.0 0.0 0.00 0.00 0.00 84 1012.1
20260906005100 26 287 0.0 0.0 0.00 0.00 0.00 83 1012.0
20260906004901 26 270 0.0 3.2 0.00 0.00 0.00 83 1012.0
20260906004800 26 251 1.6 1.6 0.00 0.00 0.00 83 1012.0
20260906004700 27 289 0.0 3.2 0.00 0.00 0.00 83 1012.0
20260906004601 27 350 0.0 1.6 0.00 0.00 0.00 82 1012.0
20260906004500 27 313 0.0 1.6 0.00 0.00 0.00 82 1012.0
20260906004000 27 279 0.0 3.2 0.00 0.00 0.00 81 1011.9
20260906003901 27 321 1.6 1.6 0.00 0.00 0.00 81 1011.9
20260906003801 27 313 1.6 1.6 0.00 0.00 0.00 80 1011.9
20260906003700 27 340 1.6 3.2 0.00 0.00 0.00 80 1011.9
20260906003600 27 332 3.2 3.2 0.00 0.00 0.00 80 1011.9
20260906003400 27 339 3.2 3.2 0.00 0.00 0.00 79 1011.9
20260906003201 27 320 0.0 1.6 0.00 0.00 0.00 79 1011.9
20260906003100 27 295 0.0 1.6 0.00 0.00 0.00 78 1011.8
20260906003000 27 306 1.6 1.6 0.00 0.00 0.00 78 1011.8
20260906002900 27 279 0.0 3.2 0.00 0.00 0.00 78 1011.8
20260906002800 27 292 3.2 3.2 0.00 0.00 0.00 78 1011.8
20260906002600 27 302 1.6 3.2 0.00 0.00 0.00 77 1011.8
20260906002301 28 238 1.6 3.2 0.00 0.00 0.00 77 1011.9
20260906002201 28 227 1.6 3.2 0.00 0.00 0.00 76 1011.9
20260906002100 28 229 3.2 4.8 0.00 0.00 0.00 76 1011.9
20260906002000 28 234 3.2 4.8 0.00 0.00 0.00 76 1011.9
20260906001901 28 218 3.2 3.2 0.00 0.00 0.00 77 1011.9
20260906001801 28 301 1.6 3.2 0.00 0.00 0.00 76 1011.9
20260906001601 28 236 3.2 4.8 0.00 0.00 0.00 77 1011.9
20260906001501 28 268 3.2 4.8 0.00 0.00 0.00 76 1011.9
20260906001401 28 249 4.8 4.8 0.00 0.00 0.00 76 1011.9
20260906001200 28 256 3.2 4.8 0.00 0.00 0.00 75 1011.9
20260906001100 28 234 3.2 4.8 0.00 0.00 0.00 76 1012.0
20260906001000 28 243 3.2 4.8 0.00 0.00 0.00 77 1012.0
20260906000900 28 283 1.6 1.6 0.00 0.00 0.00 76 1012.0
20260906000800 28 235 3.2 3.2 0.00 0.00 0.00 75 1012.0
20260906000701 28 250 3.2 4.8 0.00 0.00 0.00 75 1012.0
20260906000600 28 259 4.8 8.0 0.00 0.00 0.00 75 1012.0
20260906000200 28 278 4.8 6.4 0.00 0.00 0.00 75 1011.9
20260905235901 28 233 3.2 6.4 0.00 0.00 0.00 75 1011.9
20260905235600 28 237 1.6 3.2 0.00 0.00 0.00 76 1012.0
20260905235500 28 236 1.6 3.2 0.00 0.00 0.00 76 1012.0
20260905235400 28 247 1.6 3.2 0.00 0.00 0.00 75 1012.1
20260905235201 29 264 1.6 3.2 0.00 0.00 0.00 75 1012.1
20260905235100 29 257 3.2 3.2 0.00 0.00 0.00 74 1012.1
20260905234801 29 237 3.2 4.8 0.00 0.00 0.00 73 1012.0
20260905234301 29 242 3.2 4.8 0.00 0.00 0.00 73 1012.1
20260905234200 29 253 3.2 6.4 0.00 0.00 0.00 73 1012.1
20260905233900 29 239 4.8 6.4 0.00 0.00 0.00 73 1012.0
20260905233501 30 194 4.8 9.7 0.00 0.00 0.00 73 1012.1
20260905233400 30 251 4.8 8.0 0.00 0.00 0.00 72 1012.0
20260905233300 30 229 4.8 9.7 0.00 0.00 0.00 72 1012.1
20260905233200 30 230 8.0 11.3 0.00 0.00 0.00 72 1012.1
20260905232901 30 237 3.2 4.8 0.00 0.00 0.00 72 1012.2
20260905232700 30 287 3.2 6.4 0.00 0.00 0.00 72 1012.2
20260905232600 30 302 3.2 4.8 0.00 0.00 0.00 72 1012.2
20260905232501 30 259 4.8 8.0 0.00 0.00 0.00 72 1012.2
20260905232400 30 245 4.8 6.4 0.00 0.00 0.00 72 1012.2
20260905232300 30 247 4.8 8.0 0.00 0.00 0.00 72 1012.2
20260905232101 30 230 3.2 4.8 0.00 0.00 0.00 72 1012.2
20260905232000 30 239 1.6 3.2 0.00 0.00 0.00 72 1012.2
20260905231800 30 212 1.6 3.2 0.00 0.00 0.00 71 1012.2
20260905231700 30 291 3.2 4.8 0.00 0.00 0.00 71 1012.2
20260905231600 30 232 3.2 4.8 0.00 0.00 0.00 71 1012.2
20260905231501 30 242 4.8 6.4 0.00 0.00 0.00 71 1012.1
20260905231401 30 245 1.6 4.8 0.00 0.00 0.00 71 1012.1
20260905231300 30 216 6.4 9.7 0.00 0.00 0.00 71 1012.0
20260905231201 30 259 3.2 6.4 0.00 0.00 0.00 71 1012.1
20260905231100 30 254 3.2 4.8 0.00 0.00 0.00 71 1012.1
20260905231000 30 228 3.2 4.8 0.00 0.00 0.00 71 1012.1
20260905230600 30 174 3.2 4.8 0.00 0.00 0.00 70 1012.1
20260905230501 30 250 3.2 4.8 0.00 0.00 0.00 70 1012.1
20260905230400 30 255 1.6 3.2 0.00 0.00 0.00 70 1012.1
20260905230300 30 127 1.6 6.4 0.00 0.00 0.00 70 1012.1
20260905230200 30 233 0.0 8.0 0.00 0.00 0.00 70 1012.0
20260905225900 30 221 4.8 6.4 0.00 0.00 0.00 70 1012.0
20260905225700 30 246 6.4 4.8 0.00 0.00 0.00 70 1012.1
20260905225600 30 239 3.2 4.8 0.00 0.00 0.00 70 1012.1
20260905225500 30 304 1.6 9.7 0.00 0.00 0.00 70 1012.0
20260905225301 31 223 6.4 9.7 0.00 0.00 0.00 69 1012.0
20260905225201 31 237 8.0 11.3 0.00 0.00 0.00 69 1012.0
20260905225001 31 245 4.8 6.4 0.00 0.00 0.00 69 1012.0
20260905224901 31 238 1.6 3.2 0.00 0.00 0.00 70 1012.0
20260905224801 30 146 1.6 3.2 0.00 0.00 0.00 69 1012.0
20260905224500 30 243 4.8 6.4 0.00 0.00 0.00 69 1012.0
20260905224400 30 142 3.2 6.4 0.00 0.00 0.00 70 1012.0
20260905224300 30 62 1.6 9.7 0.00 0.00 0.00 70 1012.0
20260905224201 30 239 3.2 9.7 0.00 0.00 0.00 70 1012.0
20260905224101 30 27 1.6 4.8 0.00 0.00 0.00 70 1012.0
20260905224001 30 271 1.6 4.8 0.00 0.00 0.00 70 1012.0
20260905223800 30 253 1.6 3.2 0.00 0.00 0.00 72 1012.1
20260905223600 30 192 1.6 4.8 0.00 0.00 0.00 72 1012.2
20260905223500 30 276 4.8 8.0 0.00 0.00 0.00 72 1012.2
20260905223401 30 243 4.8 8.0 0.00 0.00 0.00 72 1012.2
20260905223100 30 302 1.6 8.0 0.00 0.00 0.00 71 1012.2
20260905223000 30 242 4.8 8.0 0.00 0.00 0.00 71 1012.2
20260905222900 30 240 6.4 9.7 0.00 0.00 0.00 72 1012.2
20260905222800 30 168 3.2 9.7 0.00 0.00 0.00 72 1012.2
20260905222700 30 293 6.4 8.0 0.00 0.00 0.00 72 1012.2
20260905222501 30 252 4.8 6.4 0.00 0.00 0.00 72 1012.2
20260905222400 30 240 1.6 6.4 0.00 0.00 0.00 73 1012.3
20260905222300 30 163 4.8 4.8 0.00 0.00 0.00 72 1012.3
20260905222000 30 230 6.4 4.8 0.00 0.00 0.00 73 1012.3
20260905221700 30 227 6.4 8.0 0.00 0.00 0.00 73 1012.3
20260905221500 30 268 8.0 8.0 0.00 0.00 0.00 73 1012.3
20260905221300 30 253 8.0 6.4 0.00 0.00 0.00 73 1012.3
20260905221200 30 249 3.2 4.8 0.00 0.00 0.00 73 1012.3
20260905221100 30 218 3.2 11.3 0.00 0.00 0.00 73 1012.3
20260905220901 30 234 1.6 8.0 0.00 0.00 0.00 72 1012.3
20260905220800 30 192 4.8 8.0 0.00 0.00 0.00 72 1012.2
20260905220700 30 234 8.0 8.0 0.00 0.00 0.00 72 1012.2
20260905220600 30 238 4.8 8.0 0.00 0.00 0.00 72 1012.2
20260905220500 30 236 4.8 9.7 0.00 0.00 0.00 72 1012.2
20260905220401 30 25 1.6 9.7 0.00 0.00 0.00 72 1012.2
20260905220300 30 241 6.4 6.4 0.00 0.00 0.00 72 1012.2
20260905220201 30 240 6.4 11.3 0.00 0.00 0.00 72 1012.2
20260905220001 30 255 12.9 4.8 0.00 0.00 0.00 71 1012.3
20260905215900 30 204 4.8 9.7 0.00 0.00 0.00 71 1012.3
20260905215800 30 238 1.6 9.7 0.00 0.00 0.00 72 1012.3
20260905215600 30 218 4.8 8.0 0.00 0.00 0.00 72 1012.2
20260905215500 30 241 3.2 8.0 0.00 0.00 0.00 72 1012.2
20260905215400 30 132 3.2 9.7 0.00 0.00 0.00 72 1012.2
20260905215301 30 277 8.0 6.4 0.00 0.00 0.00 72 1012.2
20260905215201 30 308 6.4 6.4 0.00 0.00 0.00 72 1012.2
20260905215100 30 225 4.8 8.0 0.00 0.00 0.00 72 1012.2
20260905215000 30 267 3.2 8.0 0.00 0.00 0.00 72 1012.2
20260905214900 30 296 4.8 11.3 0.00 0.00 0.00 72 1012.2
20260905214800 30 252 6.4 6.4 0.00 0.00 0.00 72 1012.2
20260905214701 30 264 4.8 8.0 0.00 0.00 0.00 72 1012.2
20260905214401 30 252 6.4 11.3 0.00 0.00 0.00 71 1012.2
20260905214300 30 223 6.4 11.3 0.00 0.00 0.00 71 1012.2
20260905214200 30 236 11.3 8.0 0.00 0.00 0.00 71 1012.2
20260905214000 31 227 4.8 9.7 0.00 0.00 0.00 69 1012.2
20260905213900 31 224 9.7 8.0 0.00 0.00 0.00 69 1012.2
20260905213700 31 234 6.4 6.4 0.00 0.00 0.00 69 1012.2
20260905213600 31 166 1.6 9.7 0.00 0.00 0.00 69 1012.2
20260905213501 30 259 4.8 6.4 0.00 0.00 0.00 69 1012.1
20260905213200 31 253 3.2 9.7 0.00 0.00 0.00 69 1012.2
20260905213100 31 236 8.0 6.4 0.00 0.00 0.00 69 1012.1
20260905213001 31 199 4.8 6.4 0.00 0.00 0.00 69 1012.1
20260905212901 31 125 3.2 4.8 0.00 0.00 0.00 68 1012.2
20260905212800 31 245 4.8 8.0 0.00 0.00 0.00 68 1012.2
20260905212700 31 203 4.8 6.4 0.00 0.00 0.00 69 1012.2
20260905212600 31 249 4.8 11.3 0.00 0.00 0.00 69 1012.2
20260905212400 31 141 6.4 8.0 0.00 0.00 0.00 68 1012.2
20260905212301 31 274 3.2 6.4 0.00 0.00 0.00 68 1012.3
20260905212201 31 256 6.4 8.0 0.00 0.00 0.00 68 1012.3
20260905212100 31 156 4.8 9.7 0.00 0.00 0.00 68 1012.3
20260905211800 30 161 1.6 4.8 0.00 0.00 0.00 69 1012.3
20260905211701 30 185 3.2 9.7 0.00 0.00 0.00 69 1012.4
20260905211601 30 125 4.8 9.7 0.00 0.00 0.00 69 1012.4
20260905211500 30 297 1.6 11.3 0.00 0.00 0.00 69 1012.5
20260905211400 30 235 3.2 11.3 0.00 0.00 0.00 69 1012.5
20260905211101 31 186 1.6 9.7 0.00 0.00 0.00 68 1012.5
20260905211001 31 173 1.6 9.7 0.00 0.00 0.00 67 1012.5
20260905210900 31 266 4.8 12.9 0.00 0.00 0.00 68 1012.5
20260905210801 31 328 9.7 9.7 0.00 0.00 0.00 68 1012.5
20260905210700 31 180 6.4 9.7 0.00 0.00 0.00 68 1012.5
20260905210600 31 318 3.2 9.7 0.00 0.00 0.00 68 1012.5
20260905210500 30 251 1.6 6.4 0.00 0.00 0.00 69 1012.5
20260905210300 30 271 4.8 12.9 0.00 0.00 0.00 68 1012.4
20260905210101 30 243 11.3 6.4 0.00 0.00 0.00 69 1012.4
20260905210000 30 247 4.8 6.4 0.00 0.00 0.00 69 1012.4
20260905205901 30 212 4.8 8.0 0.00 0.00 0.00 70 1012.4
20260905205800 30 215 6.4 8.0 0.00 0.00 0.00 70 1012.4
20260905205600 30 218 9.7 8.0 0.00 0.00 0.00 69 1012.5
20260905205400 30 249 1.6 8.0 0.00 0.00 0.00 70 1012.5
20260905205301 30 214 1.6 9.7 0.00 0.00 0.00 70 1012.5
20260905205100 30 247 6.4 8.0 0.00 0.00 0.00 70 1012.5
20260905205001 30 288 6.4 11.3 0.00 0.00 0.00 70 1012.6
20260905204900 30 130 6.4 4.8 0.00 0.00 0.00 70 1012.6
20260905204800 30 189 4.8 4.8 0.00 0.00 0.00 70 1012.6
20260905204700 30 139 3.2 4.8 0.00 0.00 0.00 70 1012.6
20260905204601 30 165 1.6 6.4 0.00 0.00 0.00 70 1012.6
20260905204501 30 252 6.4 4.8 0.00 0.00 0.00 71 1012.7
20260905204400 30 231 4.8 8.0 0.00 0.00 0.00 71 1012.7
20260905204300 30 222 3.2 8.0 0.00 0.00 0.00 71 1012.8
20260905204200 30 261 1.6 9.7 0.00 0.00 0.00 71 1012.8
20260905204100 30 262 9.7 9.7 0.00 0.00 0.00 71 1012.8
20260905204000 30 312 3.2 8.0 0.00 0.00 0.00 70 1012.8
20260905203901 30 275 6.4 6.4 0.00 0.00 0.00 70 1012.8
20260905203801 30 292 6.4 8.0 0.00 0.00 0.00 70 1012.7
20260905203701 30 179 4.8 8.0 0.00 0.00 0.00 70 1012.7
20260905203601 30 192 4.8 9.7 0.00 0.00 0.00 70 1012.7
20260905203500 30 180 9.7 6.4 0.00 0.00 0.00 70 1012.7
20260905203400 30 281 6.4 9.7 0.00 0.00 0.00 70 1012.7
20260905203201 30 262 3.2 8.0 0.00 0.00 0.00 70 1012.8
20260905203001 30 288 1.6 8.0 0.00 0.00 0.00 70 1012.8
20260905202901 30 265 4.8 11.3 0.00 0.00 0.00 69 1012.8
20260905202801 30 298 4.8 11.3 0.00 0.00 0.00 69 1012.8
20260905202600 30 199 3.2 12.9 0.00 0.00 0.00 70 1012.8
20260905202500 30 260 3.2 8.0 0.00 0.00 0.00 71 1012.8
20260905202300 30 325 1.6 4.8 0.00 0.00 0.00 72 1012.9
20260905202200 30 252 3.2 6.4 0.00 0.00 0.00 72 1012.9
20260905202100 30 300 1.6 6.4 0.00 0.00 0.00 71 1012.9
20260905201500 29 182 3.2 11.3 0.00 0.00 0.00 71 1012.9
20260905201401 29 199 1.6 11.3 0.00 0.00 0.00 71 1012.9
20260905201201 29 131 8.0 6.4 0.00 0.00 0.00 72 1012.9
20260905201101 29 212 4.8 8.0 0.00 0.00 0.00 73 1012.9
20260905201000 29 262 3.2 4.8 0.00 0.00 0.00 74 1012.9
20260905200900 29 235 4.8 11.3 0.00 0.00 0.00 74 1013.0
20260905200601 29 161 4.8 11.3 0.00 0.00 0.00 73 1013.2
20260905200400 29 269 4.8 8.0 0.00 0.00 0.00 73 1013.2
20260905200300 29 245 4.8 6.4 0.00 0.00 0.00 73 1013.3
20260905200200 29 127 3.2 6.4 0.00 0.00 0.00 73 1013.3
20260905200100 29 184 6.4 11.3 0.00 0.00 0.00 73 1013.3
20260905195801 29 249 6.4 8.0 0.00 0.00 0.00 73 1013.3
20260905195700 29 194 6.4 9.7 0.00 0.00 0.00 73 1013.3
20260905195600 29 173 8.0 9.7 0.00 0.00 0.00 73 1013.3
20260905195401 30 222 3.2 17.7 0.00 0.00 0.00 71 1013.2
20260905195300 30 266 17.7 8.0 0.00 0.00 0.00 71 1013.3
20260905195200 30 320 4.8 9.7 0.00 0.00 0.00 71 1013.2
20260905195001 30 232 6.4 12.9 0.00 0.00 0.00 72 1013.2
20260905194901 30 265 12.9 12.9 0.00 0.00 0.00 72 1013.2
20260905194801 30 168 9.7 9.7 0.00 0.00 0.00 71 1013.3
20260905194500 29 214 4.8 11.3 0.00 0.00 0.00 72 1013.3
20260905194400 29 209 11.3 12.9 0.00 0.00 0.00 72 1013.2
20260905194301 29 234 9.7 14.5 0.00 0.00 0.00 72 1013.2
20260905194000 29 156 8.0 8.0 0.00 0.00 0.00 72 1013.2
20260905193901 29 222 3.2 4.8 0.00 0.00 0.00 74 1013.2
20260905193700 29 218 0.0 16.1 0.00 0.00 0.00 74 1013.1
20260905193501 29 268 14.5 12.9 0.00 0.00 0.00 71 1013.2
20260905193301 29 228 11.3 11.3 0.00 0.00 0.00 71 1013.3
20260905193201 29 210 9.7 9.7 0.00 0.00 0.00 72 1013.2
20260905193100 29 162 8.0 11.3 0.00 0.00 0.00 74 1013.3
20260905193000 29 216 11.3 16.1 0.00 0.00 0.00 73 1013.2
20260905192901 29 229 16.1 14.5 0.00 0.00 0.00 73 1013.3
20260905192800 28 251 4.8 9.7 0.00 0.00 0.00 73 1013.3
20260905192700 28 300 1.6 11.3 0.00 0.00 0.00 74 1013.3
20260905192600 28 180 8.0 11.3 0.00 0.00 0.00 74 1013.3
20260905192401 28 82 4.8 12.9 0.00 0.00 0.00 74 1013.4
20260905192301 28 213 3.2 11.3 0.00 0.00 0.00 74 1013.3
20260905192100 28 213 4.8 12.9 0.00 0.00 0.00 74 1013.3
20260905191901 28 143 6.4 11.3 0.00 0.00 0.00 75 1013.3
20260905191800 28 257 0.0 11.3 0.00 0.00 0.00 75 1013.4
20260905191700 28 160 11.3 16.1 0.00 0.00 0.00 74 1013.4
20260905191501 28 192 11.3 16.1 0.00 0.00 0.00 74 1013.4
20260905191301 28 227 3.2 12.9 0.00 0.00 0.00 74 1013.5
20260905191201 29 139 8.0 9.7 0.00 0.00 0.00 74 1013.4
20260905191100 29 206 4.8 11.3 0.00 0.00 0.00 74 1013.5
20260905191001 29 177 6.4 16.1 0.00 0.00 0.00 73 1013.5
20260905190901 29 120 12.9 14.5 0.00 0.00 0.00 74 1013.4
20260905190800 29 227 6.4 9.7 0.00 0.00 0.00 73 1013.3
20260905190700 29 243 4.8 9.7 0.00 0.00 0.00 73 1013.4
20260905190600 28 181 9.7 6.4 0.00 0.00 0.00 74 1013.3
20260905190301 28 299 4.8 14.5 0.00 0.00 0.00 75 1013.4
20260905190100 29 248 6.4 12.9 0.00 0.00 0.00 74 1013.6
20260905185801 29 274 8.0 8.0 0.00 0.00 0.00 75 1013.6
20260905185701 29 306 4.8 8.0 0.00 0.00 0.00 75 1013.7
20260905185501 29 259 4.8 11.3 0.00 0.00 0.00 73 1013.7
20260905185401 29 251 9.7 8.0 0.00 0.00 0.00 74 1013.8
20260905185301 30 4 3.2 12.9 0.00 0.00 0.00 73 1013.7
20260905185200 30 349 6.4 12.9 0.00 0.00 0.00 73 1013.7
20260905185100 30 319 3.2 14.5 0.00 0.00 0.00 71 1013.8
20260905184801 30 249 6.4 6.4 0.00 0.00 0.00 72 1013.9
20260905184701 30 302 6.4 9.7 0.00 0.00 0.00 71 1013.9
20260905184600 30 217 6.4 8.0 0.00 0.00 0.00 71 1014.0
20260905184400 29 34 6.4 11.3 0.00 0.00 0.00 72 1013.9
20260905184301 30 221 4.8 12.9 0.00 0.00 0.00 73 1013.9
20260905184200 30 173 6.4 17.7 0.00 0.00 0.00 72 1013.9
20260905184100 30 248 9.7 12.9 0.00 0.00 0.00 72 1013.9
20260905183901 30 208 4.8 14.5 0.00 0.00 0.00 72 1013.9
20260905183801 30 228 11.3 16.1 0.00 0.00 0.00 71 1013.8
20260905183701 29 257 16.1 11.3 0.00 0.00 0.00 71 1013.9
20260905183500 29 265 12.9 9.7 0.00 0.00 0.00 72 1014.0
20260905183400 29 190 4.8 11.3 0.00 0.00 0.00 73 1014.0
20260905183200 29 151 6.4 11.3 0.00 0.00 0.00 73 1014.0
20260905183100 29 168 8.0 12.9 0.00 0.00 0.00 73 1014.0
20260905183000 29 169 9.7 14.5 0.00 0.00 0.00 73 1014.0
20260905182800 29 249 14.5 12.9 0.00 0.00 0.00 73 1014.0
20260905182700 29 232 3.2 8.0 0.00 0.00 0.00 73 1014.1
20260905182600 28 164 6.4 12.9 0.00 0.00 0.00 74 1014.1
20260905182500 29 235 4.8 9.7 0.00 0.00 0.00 75 1014.2
20260905182400 29 194 6.4 9.7 0.00 0.00 0.00 75 1014.2
20260905182301 29 203 6.4 19.3 0.00 0.00 0.00 75 1014.3
20260905182201 29 221 8.0 9.7 0.00 0.00 0.00 75 1014.3
20260905182100 29 214 6.4 12.9 0.00 0.00 0.00 74 1014.3
20260905182001 29 142 11.3 14.5 0.00 0.00 0.00 73 1014.3
20260905181900 29 224 9.7 11.3 0.00 0.00 0.00 73 1014.3
20260905181800 29 206 8.0 19.3 0.00 0.00 0.00 73 1014.3
20260905181600 29 116 8.0 6.4 0.00 0.00 0.00 73 1014.2
20260905181500 29 263 6.4 17.7 0.00 0.00 0.00 73 1014.3
20260905181400 29 179 3.2 8.0 0.00 0.00 0.00 73 1014.3
20260905181001 29 249 6.4 12.9 0.00 0.00 0.00 73 1014.3
20260905180900 29 124 8.0 14.5 0.00 0.00 0.00 72 1014.3
20260905180700 29 154 9.7 14.5 0.00 0.00 0.00 75 1014.3
20260905180501 29 234 12.9 12.9 0.00 0.00 0.00 75 1014.3
20260905180401 29 281 8.0 16.1 0.00 0.00 0.00 74 1014.5
20260905180200 29 233 14.5 14.5 0.00 0.00 0.00 74 1014.5
20260905180000 29 265 1.6 14.5 0.00 0.00 0.00 74 1014.5
20260905175900 29 253 12.9 12.9 0.00 0.00 0.00 74 1014.6
20260905175801 30 154 12.9 19.3 0.00 0.00 0.00 74 1014.7
20260905175701 30 231 19.3 17.7 0.00 0.00 0.00 73 1014.7
20260905175601 30 250 11.3 11.3 0.00 0.00 0.00 72 1014.6
20260905175500 30 230 11.3 9.7 0.00 0.00 0.00 71 1014.7
20260905175200 30 282 6.4 8.0 0.00 0.00 0.00 72 1014.7
20260905175000 30 142 8.0 8.0 0.00 0.00 0.00 72 1014.7
20260905174901 30 161 4.8 11.3 0.00 0.00 0.00 72 1014.7
20260905174801 30 283 6.4 14.5 0.00 0.00 0.00 71 1014.8
20260905174701 30 192 8.0 12.9 0.00 0.00 0.00 71 1014.8
20260905174501 30 154 4.8 9.7 0.00 0.00 0.00 71 1014.8
20260905174301 29 174 9.7 9.7 0.00 0.00 0.00 74 1014.7
20260905174200 29 136 6.4 11.3 0.00 0.00 0.00 74 1014.9
20260905174100 29 157 9.7 14.5 0.00 0.00 0.00 74 1014.9
20260905174000 29 180 6.4 16.1 0.00 0.00 0.00 74 1014.9
20260905173801 29 246 3.2 12.9 0.00 0.00 0.00 74 1014.9
20260905173700 29 249 6.4 12.9 0.00 0.00 0.00 74 1014.9
20260905173500 28 240 8.0 9.7 0.00 0.00 0.00 75 1014.9
20260905173400 28 248 6.4 9.7 0.00 0.00 0.00 75 1014.9
20260905173300 28 189 3.2 16.1 0.00 0.00 0.00 75 1014.9
20260905173200 28 245 11.3 14.5 0.00 0.00 0.00 75 1015.0
20260905173101 28 250 9.7 12.9 0.00 0.00 0.00 76 1015.0
20260905173001 28 132 1.6 14.5 0.00 0.00 0.00 76 1015.0
20260905172900 28 267 9.7 12.9 0.00 0.00 0.00 77 1015.0
20260905172800 28 215 9.7 11.3 0.00 0.00 0.00 77 1015.0
20260905172700 28 256 6.4 11.3 0.00 0.00 0.00 77 1015.0
20260905172501 28 230 8.0 12.9 0.00 0.00 0.00 77 1015.0
20260905172400 28 263 11.3 14.5 0.00 0.00 0.00 77 1015.1
20260905172301 28 241 4.8 11.3 0.00 0.00 0.00 77 1015.1
20260905172100 28 206 3.2 16.1 0.00 0.00 0.00 77 1015.0
20260905172000 28 236 11.3 11.3 0.00 0.00 0.00 78 1014.9
20260905171901 28 289 9.7 11.3 0.00 0.00 0.00 77 1014.9
20260905171700 28 244 8.0 14.5 0.00 0.00 0.00 77 1015.0
20260905171600 28 187 14.5 12.9 0.00 0.00 0.00 78 1015.0
20260905171500 28 213 11.3 14.5 0.00 0.00 0.00 79 1015.0
20260905171400 28 305 3.2 11.3 0.00 0.00 0.00 79 1015.0
20260905171300 28 249 9.7 17.7 0.00 0.00 0.00 80 1015.0
20260905171101 28 188 12.9 14.5 0.00 0.00 0.00 81 1015.0
20260905171001 28 252 14.5 16.1 0.00 0.00 0.00 80 1015.0
20260905170901 28 234 9.7 16.1 0.00 0.00 0.00 79 1015.0
20260905170800 28 262 16.1 14.5 0.00 0.00 0.00 79 1015.0
20260905170700 28 262 14.5 16.1 0.00 0.00 0.00 80 1015.1
20260905170500 27 159 9.7 16.1 0.00 0.00 0.00 84 1015.1
20260905170400 27 230 6.4 16.1 0.00 0.00 0.00 83 1014.9
20260905170301 27 159 12.9 11.3 0.00 0.00 0.00 85 1015.0
20260905170100 27 248 9.7 11.3 0.00 0.00 0.00 84 1014.9
20260905170000 27 182 9.7 11.3 0.00 0.00 0.00 85 1014.9
20260905165801 27 160 9.7 12.9 0.00 0.00 0.00 85 1014.9
20260905165700 27 237 4.8 16.1 0.00 0.00 0.00 86 1014.9
20260905165600 27 281 11.3 12.9 0.00 0.00 0.00 86 1015.0
20260905165501 27 247 6.4 9.7 0.00 0.00 0.00 87 1015.0
20260905165400 27 266 6.4 14.5 0.00 0.00 0.00 86 1015.1
20260905165300 27 171 9.7 9.7 0.00 0.00 0.00 87 1015.1
20260905165101 27 229 6.4 12.9 0.00 0.00 0.00 89 1015.3
20260905165001 27 192 4.8 9.7 0.00 0.00 0.00 89 1015.4
20260905164901 27 150 6.4 9.7 0.00 0.00 0.00 87 1015.3
20260905164501 27 248 12.9 17.7 0.00 0.00 0.00 86 1015.3
20260905164400 27 245 12.9 11.3 0.00 0.00 0.00 85 1015.3
20260905164300 27 234 8.0 9.7 0.00 0.00 0.00 84 1015.3
20260905164200 27 194 11.3 9.7 0.00 0.00 0.00 84 1015.3
20260905164100 27 160 6.4 11.3 0.00 0.00 0.00 82 1015.4
20260905164000 27 216 8.0 14.5 0.00 0.00 0.00 80 1015.4
20260905163900 27 196 9.7 12.9 0.00 0.00 0.00 79 1015.4
20260905163800 27 265 6.4 12.9 0.00 0.00 0.00 79 1015.4
20260905163701 27 202 9.7 17.7 0.00 0.00 0.00 80 1015.5
20260905163601 27 240 6.4 17.7 0.00 0.00 0.00 80 1015.5
20260905163501 27 254 11.3 16.1 0.00 0.00 0.00 80 1015.5
20260905163400 27 234 6.4 16.1 0.00 0.00 0.00 80 1015.5
20260905163300 27 235 11.3 16.1 0.00 0.00 0.00 80 1015.7
20260905163200 27 215 9.7 16.1 0.00 0.00 0.00 79 1015.6
20260905163100 27 242 11.3 11.3 0.00 0.00 0.00 79 1015.7
20260905163000 27 270 6.4 11.3 0.00 0.00 0.00 79 1015.7
20260905162901 27 195 6.4 12.9 0.00 0.00 0.00 79 1015.6
20260905162601 27 248 6.4 6.4 0.00 0.00 0.00 80 1015.6
20260905162501 27 217 4.8 14.5 0.00 0.00 0.00 80 1015.6
20260905162400 27 244 6.4 12.9 0.00 0.00 0.00 80 1015.6
20260905162300 27 233 8.0 12.9 0.00 0.00 0.00 80 1015.7
20260905162100 27 145 4.8 12.9 0.00 0.00 0.00 80 1015.6
20260905162000 28 211 8.0 16.1 0.00 0.00 0.00 80 1015.7
20260905161900 28 190 3.2 14.5 0.00 0.00 0.00 80 1015.6
20260905161800 28 150 9.7 16.1 0.00 0.00 0.00 79 1015.6
20260905161700 28 207 9.7 17.7 0.00 0.00 0.00 78 1015.6
20260905161401 28 306 8.0 17.7 0.00 0.00 0.00 77 1015.6
20260905161301 28 291 8.0 9.7 0.00 0.00 0.00 77 1015.7
20260905161100 28 285 3.2 9.7 0.00 0.00 0.00 77 1015.6
20260905161000 28 257 6.4 14.5 0.00 0.00 0.00 77 1015.7
20260905160900 28 244 6.4 8.0 0.00 0.00 0.00 77 1015.7
20260905160800 28 149 4.8 14.5 0.00 0.00 0.00 77 1015.6
20260905160600 28 284 12.9 14.5 0.00 0.00 0.00 76 1015.5
20260905160500 28 255 8.0 16.1 0.00 0.00 0.00 75 1015.5
20260905160300 28 170 4.8 14.5 0.00 0.00 0.00 75 1015.6
20260905160200 28 188 4.8 12.9 0.00 0.00 0.00 74 1015.5
20260905160000 28 240 8.0 17.7 0.00 0.00 0.00 74 1015.5
20260905155901 28 197 9.7 14.5 0.00 0.00 0.00 76 1015.5
20260905155801 28 120 8.0 8.0 0.00 0.00 0.00 76 1015.5
20260905155700 28 256 4.8 16.1 0.00 0.00 0.00 76 1015.5
20260905155600 28 222 12.9 14.5 0.00 0.00 0.00 76 1015.5
20260905155501 28 222 6.4 12.9 0.00 0.00 0.00 76 1015.5
20260905155400 28 256 4.8 12.9 0.00 0.00 0.00 76 1015.5
20260905155300 28 194 11.3 12.9 0.00 0.00 0.00 76 1015.5
20260905155200 28 231 8.0 14.5 0.00 0.00 0.00 76 1015.5
20260905155100 28 263 14.5 11.3 0.00 0.00 0.00 76 1015.5
20260905155001 28 265 6.4 14.5 0.00 0.00 0.00 76 1015.5
20260905154900 29 274 8.0 14.5 0.00 0.00 0.00 76 1015.5
20260905154800 29 282 8.0 11.3 0.00 0.00 0.00 75 1015.5
20260905154700 29 267 9.7 12.9 0.00 0.00 0.00 75 1015.5
20260905154600 29 272 4.8 9.7 0.00 0.00 0.00 75 1015.4
20260905154501 29 262 6.4 9.7 0.00 0.00 0.00 75 1015.4
20260905154400 29 232 4.8 11.3 0.00 0.00 0.00 75 1015.4
20260905154300 29 195 3.2 16.1 0.00 0.00 0.00 75 1015.3
20260905154200 30 251 14.5 14.5 0.00 0.00 0.00 74 1015.3
20260905154001 30 267 11.3 16.1 0.00 0.00 0.00 73 1015.2
20260905153900 30 254 6.4 9.7 0.00 0.00 0.00 72 1015.1
20260905153800 30 155 3.2 9.7 0.00 0.00 0.00 72 1015.1
20260905153701 30 236 6.4 12.9 0.00 0.00 0.00 72 1015.1
20260905153601 30 247 9.7 11.3 0.00 0.00 0.00 72 1015.1
20260905153500 30 304 4.8 12.9 0.00 0.00 0.00 72 1015.1
20260905153201 30 277 8.0 11.3 0.00 0.00 0.00 71 1015.0
20260905153100 30 260 6.4 12.9 0.00 0.00 0.00 71 1015.0
20260905153000 30 282 6.4 11.3 0.00 0.00 0.00 71 1015.0
20260905152901 30 268 4.8 9.7 0.00 0.00 0.00 71 1015.0
20260905152800 30 29 3.2 11.3 0.00 0.00 0.00 71 1015.0
20260905152700 31 267 9.7 12.9 0.00 0.00 0.00 70 1015.0
20260905152500 31 233 9.7 12.9 0.00 0.00 0.00 70 1014.9
20260905152401 31 241 11.3 11.3 0.00 0.00 0.00 69 1014.8
20260905152300 31 255 8.0 9.7 0.00 0.00 0.00 69 1014.9
20260905152200 31 252 8.0 12.9 0.00 0.00 0.00 67 1014.8
20260905152001 31 349 6.4 4.8 0.00 0.00 0.00 66 1014.8
20260905151901 31 199 1.6 4.8 0.00 0.00 0.00 67 1014.8
20260905151801 31 154 3.2 6.4 0.00 0.00 0.00 67 1014.8
20260905151700 31 292 1.6 6.4 0.00 0.00 0.00 67 1014.8
20260905151600 31 280 3.2 6.4 0.00 0.00 0.00 67 1014.8
20260905151501 31 38 4.8 8.0 0.00 0.00 0.00 67 1014.8
20260905151301 31 7 6.4 8.0 0.00 0.00 0.00 68 1014.8
20260905151200 31 340 4.8 3.2 0.00 0.00 0.00 69 1014.9
20260905151001 31 319 3.2 9.7 0.00 0.00 0.00 68 1014.9
20260905150900 31 336 6.4 9.7 0.00 0.00 0.00 68 1014.9
20260905150800 31 289 4.8 4.8 0.00 0.00 0.00 68 1014.8
20260905150600 30 111 4.8 6.4 0.00 0.00 0.00 68 1014.8
20260905150500 30 253 6.4 6.4 0.00 0.00 0.00 68 1014.8
20260905150400 30 199 1.6 4.8 0.00 0.00 0.00 68 1014.8
20260905150300 30 208 0.0 4.8 0.00 0.00 0.00 68 1014.8
20260905150201 30 295 4.8 6.4 0.00 0.00 0.00 68 1014.9
20260905150101 30 350 6.4 3.2 0.00 0.00 0.00 67 1014.9
20260905150001 30 293 3.2 3.2 0.00 0.00 0.00 67 1014.9
20260905145900 30 233 3.2 4.8 0.00 0.00 0.00 67 1014.9
20260905145801 30 247 1.6 6.4 0.00 0.00 0.00 67 1014.9
20260905145700 30 344 4.8 4.8 0.00 0.00 0.00 67 1014.9
20260905145500 30 143 0.0 4.8 0.00 0.00 0.00 68 1014.8
20260905145400 30 143 3.2 9.7 0.00 0.00 0.00 68 1014.8
20260905145300 30 204 4.8 9.7 0.00 0.00 0.00 67 1014.8
20260905145200 30 141 6.4 3.2 0.00 0.00 0.00 68 1014.8
20260905145100 30 106 1.6 8.0 0.00 0.00 0.00 68 1014.8
20260905144901 30 302 1.6 3.2 0.00 0.00 0.00 68 1014.9
20260905144801 30 165 0.0 6.4 0.00 0.00 0.00 67 1014.9
20260905144701 30 258 1.6 4.8 0.00 0.00 0.00 68 1014.9
20260905144601 30 243 1.6 3.2 0.00 0.00 0.00 68 1014.9
20260905144400 30 69 0.0 4.8 0.00 0.00 0.00 68 1015.0
20260905144300 30 352 3.2 6.4 0.00 0.00 0.00 69 1015.0
20260905144200 30 10 1.6 4.8 0.00 0.00 0.00 68 1015.0
20260905144101 30 200 1.6 4.8 0.00 0.00 0.00 69 1014.9
20260905144000 30 301 1.6 4.8 0.00 0.00 0.00 69 1014.9
20260905143800 30 340 0.0 4.8 0.00 0.00 0.00 69 1014.9
20260905143700 30 267 1.6 4.8 0.00 0.00 0.00 69 1014.9